• In Czech Republic
  • List of Countries
  • For 7 days
  • Water Temperature
  • Satellite Maps
  • Weather Map
  • Weather Widgets
  • user-avatar
    Login

    Hourly Weather Nativitas

    Today, 21 October, Sunday

    Time Temperature Precipitation Wind Pressure Humidity
    00:00 +14°C° 0 mm 2 mps 582 mmHg 89%
    01:00 +14°C° 0 mm 2 mps 582 mmHg 89%
    02:00 +14°C° 0 mm 2 mps 582 mmHg 90%
    03:00 +14°C° 0 mm 2 mps 582 mmHg 90%
    04:00 +13°C° 0 mm 3 mps 582 mmHg 90%
    05:00 +13°C° 0 mm 3 mps 583 mmHg 89%
    06:00 +14°C° 0 mm 3 mps 583 mmHg 84%
    07:00 +16°C° 0 mm 3 mps 584 mmHg 79%
    08:00 +17°C° 0 mm 4 mps 585 mmHg 75%
    09:00 +19°C° 0.1 mm 4 mps 585 mmHg 70%
    10:00 +20°C° 0.1 mm 4 mps 585 mmHg 65%
    11:00 +21°C° 0.1 mm 4 mps 586 mmHg 61%
    12:00 +21°C° 0.3 mm 4 mps 585 mmHg 63%
    13:00 +20°C° 0.3 mm 3 mps 584 mmHg 65%
    14:00 +20°C° 0.3 mm 3 mps 583 mmHg 67%
    15:00 +19°C° 0.6 mm 3 mps 583 mmHg 72%
    16:00 +18°C° 0.6 mm 3 mps 582 mmHg 77%
    17:00 +17°C° 0.6 mm 3 mps 582 mmHg 81%
    18:00 +16°C° 0.2 mm 3 mps 582 mmHg 84%
    19:00 +16°C° 0.2 mm 3 mps 583 mmHg 86%
    20:00 +15°C° 0.2 mm 2 mps 583 mmHg 88%
    21:00 +15°C° 0.1 mm 2 mps 583 mmHg 89%
    22:00 +15°C° 0.1 mm 2 mps 583 mmHg 89%
    23:00 +14°C° 0.1 mm 2 mps 583 mmHg 89%

    Tomorrow, 22 October, Monday

    Time Temperature Precipitation Wind Pressure Humidity
    00:00 +14°C° 0 mm 2 mps 582 mmHg 89%
    01:00 +14°C° 0 mm 2 mps 582 mmHg 90%
    02:00 +14°C° 0 mm 2 mps 582 mmHg 90%
    03:00 +13°C° 0 mm 2 mps 581 mmHg 90%
    04:00 +13°C° 0 mm 2 mps 581 mmHg 91%
    05:00 +12°C° 0 mm 2 mps 581 mmHg 91%
    06:00 +14°C° 0 mm 2 mps 582 mmHg 85%
    07:00 +15°C° 0 mm 2 mps 583 mmHg 78%
    08:00 +17°C° 0 mm 2 mps 584 mmHg 72%
    09:00 +18°C° 0 mm 2 mps 585 mmHg 63%
    10:00 +20°C° 0 mm 2 mps 585 mmHg 55%
    11:00 +21°C° 0 mm 3 mps 585 mmHg 47%
    12:00 +22°C° 0 mm 3 mps 585 mmHg 47%
    13:00 +22°C° 0 mm 4 mps 584 mmHg 47%
    14:00 +22°C° 0 mm 4 mps 584 mmHg 47%
    15:00 +21°C° 0.1 mm 3 mps 583 mmHg 55%
    16:00 +19°C° 0.1 mm 3 mps 583 mmHg 64%
    17:00 +17°C° 0.1 mm 2 mps 582 mmHg 72%
    18:00 +17°C° 0 mm 2 mps 582 mmHg 76%
    19:00 +16°C° 0 mm 2 mps 583 mmHg 79%
    20:00 +15°C° 0 mm 1 mps 583 mmHg 83%
    21:00 +15°C° 0 mm 1 mps 583 mmHg 84%
    22:00 +14°C° 0 mm 1 mps 583 mmHg 86%
    23:00 +14°C° 0 mm 1 mps 583 mmHg 87%

    Day after tomorrow, 23 October, Tuesday

    Time Temperature Precipitation Wind Pressure Humidity
    00:00 +14°C° 0 mm 1 mps 582 mmHg 88%
    01:00 +14°C° 0 mm 1 mps 582 mmHg 88%
    02:00 +13°C° 0 mm 1 mps 581 mmHg 89%
    03:00 +13°C° 0 mm 1 mps 581 mmHg 89%
    04:00 +13°C° 0 mm 1 mps 581 mmHg 90%
    05:00 +13°C° 0 mm 1 mps 581 mmHg 90%
    06:00 +14°C° 0 mm 1 mps 582 mmHg 84%
    07:00 +16°C° 0 mm 1 mps 583 mmHg 78%
    08:00 +18°C° 0 mm 1 mps 584 mmHg 72%
    09:00 +19°C° 0 mm 2 mps 584 mmHg 67%
    10:00 +20°C° 0 mm 2 mps 585 mmHg 63%
    11:00 +21°C° 0 mm 3 mps 585 mmHg 58%
    12:00 +21°C° 0.1 mm 3 mps 584 mmHg 58%
    13:00 +21°C° 0.1 mm 3 mps 584 mmHg 57%
    14:00 +22°C° 0.1 mm 4 mps 583 mmHg 56%
    15:00 +20°C° 0 mm 3 mps 582 mmHg 63%
    16:00 +19°C° 0 mm 3 mps 582 mmHg 69%
    17:00 +17°C° 0 mm 2 mps 581 mmHg 75%
    18:00 +17°C° 0 mm 2 mps 582 mmHg 79%
    19:00 +16°C° 0 mm 1 mps 582 mmHg 83%
    20:00 +15°C° 0 mm 1 mps 582 mmHg 86%
    21:00 +14°C° 0 mm 1 mps 582 mmHg 87%
    22:00 +14°C° 0 mm 1 mps 582 mmHg 88%
    23:00 +14°C° 0 mm 1 mps 582 mmHg 89%

    24 October, Wednesday

    Time Temperature Precipitation Wind Pressure Humidity
    00:00 +14°C° 0 mm 1 mps 581 mmHg 90%
    01:00 +14°C° 0 mm 1 mps 581 mmHg 90%
    02:00 +14°C° 0 mm 1 mps 581 mmHg 91%
    03:00 +13°C° 0 mm 1 mps 581 mmHg 91%
    04:00 +13°C° 0 mm 1 mps 581 mmHg 91%
    05:00 +13°C° 0 mm 1 mps 581 mmHg 90%
    06:00 +15°C° 0 mm 1 mps 582 mmHg 86%
    07:00 +16°C° 0 mm 1 mps 583 mmHg 81%
    08:00 +17°C° 0 mm 2 mps 583 mmHg 76%
    09:00 +19°C° 0 mm 2 mps 584 mmHg 68%
    10:00 +20°C° 0 mm 2 mps 584 mmHg 61%
    11:00 +22°C° 0 mm 3 mps 584 mmHg 54%
    12:00 +22°C° 0 mm 3 mps 584 mmHg 52%
    13:00 +22°C° 0 mm 3 mps 583 mmHg 51%
    14:00 +24°C° 0 mm 3 mps 583 mmHg 50%
    15:00 +21°C° 0 mm 3 mps 582 mmHg 58%
    16:00 +19°C° 0 mm 2 mps 582 mmHg 67%
    17:00 +18°C° 0 mm 2 mps 581 mmHg 75%
    18:00 +17°C° 0 mm 2 mps 581 mmHg 79%
    19:00 +16°C° 0 mm 1 mps 582 mmHg 84%
    20:00 +15°C° 0 mm 1 mps 582 mmHg 88%
    21:00 +14°C° 0 mm 1 mps 581 mmHg 88%
    22:00 +14°C° 0 mm 1 mps 581 mmHg 88%
    23:00 +14°C° 0 mm 1 mps 581 mmHg 88%

    25 October, Thursday

    Time Temperature Precipitation Wind Pressure Humidity
    00:00 +13°C° 0 mm 1 mps 581 mmHg 88%
    01:00 +13°C° 0 mm 1 mps 580 mmHg 87%
    02:00 +13°C° 0 mm 1 mps 580 mmHg 87%
    03:00 +13°C° 0 mm 1 mps 580 mmHg 86%
    04:00 +12°C° 0 mm 1 mps 580 mmHg 86%
    05:00 +12°C° 0 mm 1 mps 580 mmHg 85%
    06:00 +14°C° 0 mm 1 mps 581 mmHg 77%
    07:00 +15°C° 0 mm 0 mps 583 mmHg 70%
    08:00 +17°C° 0 mm 0 mps 584 mmHg 62%
    09:00 +21°C° 0 mm 1 mps 584 mmHg 56%
    10:00 +22°C° 0 mm 1 mps 584 mmHg 51%
    11:00 +23°C° 0 mm 2 mps 584 mmHg 45%
    12:00 +23°C° 0 mm 2 mps 584 mmHg 46%
    13:00 +24°C° 0 mm 2 mps 583 mmHg 47%
    14:00 +24°C° 0 mm 3 mps 583 mmHg 48%
    15:00 +21°C° 0.2 mm 2 mps 582 mmHg 56%
    16:00 +19°C° 0.2 mm 2 mps 582 mmHg 65%
    17:00 +18°C° 0.2 mm 2 mps 582 mmHg 73%
    18:00 +17°C° 0.2 mm 2 mps 582 mmHg 76%
    19:00 +16°C° 0.2 mm 1 mps 582 mmHg 79%
    20:00 +16°C° 0.2 mm 1 mps 582 mmHg 82%
    21:00 +15°C° 0.2 mm 1 mps 582 mmHg 83%
    22:00 +15°C° 0.2 mm 1 mps 582 mmHg 84%
    23:00 +15°C° 0.2 mm 1 mps 581 mmHg 85%

    26 October, Friday

    Time Temperature Precipitation Wind Pressure Humidity
    00:00 +15°C° 0.2 mm 1 mps 581 mmHg 86%
    01:00 +14°C° 0.2 mm 1 mps 581 mmHg 87%
    02:00 +13°C° 0.2 mm 0 mps 581 mmHg 88%
    03:00 +13°C° 0 mm 0 mps 581 mmHg 88%
    04:00 +13°C° 0 mm 0 mps 581 mmHg 89%
    05:00 +12°C° 0 mm 0 mps 581 mmHg 90%
    06:00 +15°C° 0 mm 1 mps 582 mmHg 84%
    07:00 +16°C° 0 mm 1 mps 583 mmHg 78%
    08:00 +19°C° 0 mm 1 mps 583 mmHg 72%
    09:00 +20°C° 0.1 mm 1 mps 584 mmHg 67%
    10:00 +21°C° 0.1 mm 1 mps 584 mmHg 62%
    11:00 +21°C° 0.1 mm 2 mps 584 mmHg 57%
    12:00 +21°C° 0.8 mm 2 mps 583 mmHg 57%
    13:00 +21°C° 0.8 mm 2 mps 583 mmHg 58%
    14:00 +21°C° 0.8 mm 2 mps 582 mmHg 58%
    15:00 +20°C° 1.4 mm 2 mps 582 mmHg 65%
    16:00 +19°C° 1.4 mm 2 mps 581 mmHg 72%
    17:00 +18°C° 1.4 mm 1 mps 581 mmHg 79%
    18:00 +18°C° 0.4 mm 1 mps 581 mmHg 80%
    19:00 +16°C° 0.4 mm 1 mps 582 mmHg 81%
    20:00 +15°C° 0.4 mm 0 mps 582 mmHg 82%
    21:00 +15°C° 0 mm 1 mps 582 mmHg 83%
    22:00 +15°C° 0 mm 1 mps 581 mmHg 84%
    23:00 +15°C° 0 mm 1 mps 581 mmHg 85%
    Show more